La Paz, Mexico

1:21 AM MDT on September 21, 2017 (GMT -0600)
Gen Manuel Marquez De Leon

Weather History for MMLP - April, 2014

Change the Weather History Date:

Monday, April 7, 2014

  Actual Average Record
Temperature  
Mean Temperature 72 °F -  
Max Temperature 86 °F 87 °F 95 °F (2005)
Min Temperature 57 °F 58 °F 50 °F (2006)
Cooling Degree Days 6    
Growing Degree Days 22 (Base 50)    
Moisture  
Dew Point 49 °F    
Average Humidity 40    
Maximum Humidity 76    
Minimum Humidity 24    
Precipitation  
Precipitation 0.00 in - - ()
Sea Level Pressure  
Sea Level Pressure 29.95 in    
Wind  
Wind Speed 5 mph ()    
Max Wind Speed 16 mph    
Max Gust Speed -    
Visibility 10.4 miles    
Events      
Averages and records for this station are not official NWS values.
T = Trace of Precipitation, MM = Missing Value Source: Averaged Metar Reports

Daily Weather History Graph

Daily Weather History Graph

Search for Another Location

Airport or City:

Trip Planner

Search our weather history database for the weather conditions in past years. The results will help you decide how hot, cold, wet, or windy it might be!

Date:

Astronomy

Apr. 07, 2014 Rise Set
Actual Time 7:07 AM MDT 7:39 PM MDT
Civil Twilight 6:44 AM MDT 8:02 PM MDT
Nautical Twilight 6:17 AM MDT 8:29 PM MDT
Astronomical Twilight 5:50 AM MDT 8:56 PM MDT
Moon 1:22 PM MDT (4/7) 2:02 AM MDT (4/7)
Length of Visible Light 13h 18m
Length of Day
12h 32m
First Quarter, 54% of the Moon is Illuminated
Apr 7
First Quarter
Apr 15
Full
Apr 22
Last Quarter
Apr 29
New
May 6
First Quarter

Hourly Weather History & Observations

Time (MDT) Temp. Dew Point Humidity Pressure Visibility Wind Dir Wind Speed Gust Speed Precip Events Conditions
5:47 AM 50.0 °F 42.8 °F 76% 29.94 in 10.0 mi Calm Calm - N/A   Partly Cloudy
5:50 AM 57 °F 47 °F 61% 29.91 in 2 mi Calm Calm - -  
8:40 AM 59.0 °F 42.8 °F 55% 29.98 in 10.0 mi Calm Calm - N/A   Clear
8:50 AM 66 °F 48 °F 41% 29.96 in 16 mi South 2.2 mph - -  
9:40 AM 73.4 °F 44.6 °F 36% 30.00 in 10.0 mi Calm Calm - N/A   Clear
10:45 AM 75.2 °F 50.0 °F 41% 29.99 in 10.0 mi NNW 4.6 mph - N/A   Clear
11:40 AM 75.2 °F 51.8 °F 44% 29.98 in 10.0 mi NNW 9.2 mph - N/A   Clear
11:50 AM 81 °F 56 °F 32% 29.97 in 19 mi NW 8.9 mph - -  
12:42 PM 77.0 °F 53.6 °F 44% 29.98 in 10.0 mi NNW 13.8 mph - N/A   Clear
1:41 PM 78.8 °F 53.6 °F 42% 29.96 in 10.0 mi North 13.8 mph - N/A   Clear
2:50 PM 85 °F 53 °F 24% 29.94 in 19 mi NW 11.2 mph - -  
2:51 PM 80.6 °F 46.4 °F 30% 29.95 in 10.0 mi NNW 16.1 mph - N/A   Clear
3:45 PM 80.6 °F 48.2 °F 32% 29.92 in 10.0 mi North 13.8 mph - N/A   Clear
4:40 PM 80.6 °F 46.4 °F 30% 29.92 in 10.0 mi North 11.5 mph - N/A   Clear
5:43 PM 78.8 °F 50.0 °F 36% 29.92 in 10.0 mi NW 9.2 mph - N/A   Clear
5:45 PM 84 °F 53 °F 24% 29.89 in 19 mi NNW 6.7 mph - -  
6:47 PM 78.8 °F 46.4 °F 32% 29.92 in 10.0 mi NW 6.9 mph - N/A   Clear
7:45 PM 75.2 °F 48.2 °F 38% 29.92 in 10.0 mi NW 6.9 mph - N/A   Clear
8:45 PM 75 °F 56 °F 42% 29.91 in 2 mi SSW 2.2 mph - -  
8:50 PM 71.6 °F 46.4 °F 41% 29.96 in 10.0 mi Calm Calm - N/A   Clear
9:40 PM 69.8 °F 50.0 °F 49% 29.96 in 10.0 mi Calm Calm - N/A   Clear
10:44 PM 62.6 °F 41.0 °F 45% 29.98 in 10.0 mi SSE 6.9 mph - N/A   Clear
11:50 PM 70 °F 49 °F 35% 29.97 in 2 mi NNE 2.2 mph - -